Location: Eaton
(41.3139°N, 82.0207°W)
Time: 00:40:05
(UTC+00:00)

Cosmos 1844 - Pass Details

Date: 17 June 2021
Orbit: 823 x 867 km, 70.9° (Epoch: 02 August)

Event Time Altitude Azimuth Distance (km) Brightness Sun altitude
Rises 04:09:18 0° 328° (NNW) 3,369 8.2 -22.7°
Reaches altitude 10° 04:11:52 10° 321° (NW) 2,435 7.1 -22.9°
Maximum altitude 04:16:58 38° 254° (WSW) 1,247 4.5 -23.2°
Enters shadow 04:18:22 33° 222° (SW) 1,375 4.5 -23.3°
